Weather History for Lincoln, CA

Change the Weather History Date:

Thursday, June 27, 2013

  Actual Average (KAUN) Record (KAUN)
Temperature  
Mean Temperature 78 °F -  
Max Temperature 95 °F 88 °F 103 °F (1973)
Min Temperature 62 °F 59 °F 48 °F (1955)
Cooling Degree Days 14    
Growing Degree Days 28 (Base 50)    
Moisture  
Dew Point 59 °F    
Average Humidity 56    
Maximum Humidity 88    
Minimum Humidity 22    
Precipitation  
Precipitation 0.00 in - - ()
Sea Level Pressure  
Sea Level Pressure 30.01 in    
Wind  
Wind Speed 5 mph (WSW)    
Max Wind Speed 9 mph    
Max Gust Speed -    
Visibility 10 miles    
Events      
Averages and records for this station are not official NWS values.
T = Trace of Precipitation, MM = Missing Value Source: NWS Daily Summary

Daily Weather History Graph

Daily Weather History Graph

Search for Another Location

Airport:

Trip Planner

Search our weather history database for the weather conditions in past years. The results will help you decide how hot, cold, wet, or windy it might be!

Date:

Astronomy

Jun. 27, 2013 Rise Set
Actual Time 5:42 AM PDT 8:34 PM PDT
Civil Twilight 5:10 AM PDT 9:06 PM PDT
Nautical Twilight 4:29 AM PDT 9:47 PM PDT
Astronomical Twilight 3:43 AM PDT 10:33 PM PDT
Moon 11:38 PM PDT 10:46 AM PDT
Length of Visible Light 15h 56m
Length of Day
14h 52m
Waning Gibbous, 75% of the Moon is Illuminated
Jun 27
Waning Gibbous
Jun 29
Last Quarter
Jul 8
New
Jul 15
First Quarter
Jul 22
Full

Hourly Weather History & Observations

Time (PDT) Temp. Heat Index Dew Point Humidity Pressure Visibility Wind Dir Wind Speed Gust Speed Precip Events Conditions
12:15 AM 69.8 °F - 60.8 °F 73% 30.00 in 10.0 mi SSE 4.6 mph - N/A   Clear
12:35 AM 69.8 °F - 60.8 °F 73% 30.00 in 10.0 mi SSE 4.6 mph - N/A   Clear
12:55 AM 68.0 °F - 60.8 °F 78% 30.00 in 10.0 mi South 4.6 mph - N/A   Clear
1:15 AM 68.0 °F - 60.8 °F 78% 30.01 in 10.0 mi ESE 3.5 mph - N/A   Clear
1:35 AM 69.8 °F - 60.8 °F 73% 30.01 in 10.0 mi Calm Calm - N/A   Clear
1:55 AM 64.4 °F - 60.8 °F 88% 30.00 in 10.0 mi ESE 4.6 mph - N/A   Clear
2:15 AM 68.0 °F - 60.8 °F 78% 30.01 in 10.0 mi ESE 4.6 mph - N/A   Clear
2:35 AM 68.0 °F - 60.8 °F 78% 30.01 in 10.0 mi SE 4.6 mph - N/A   Clear
2:55 AM 68.0 °F - 60.8 °F 78% 30.01 in 10.0 mi SE 5.8 mph - N/A   Clear
3:15 AM 68.0 °F - 60.8 °F 78% 30.01 in 10.0 mi SSE 5.8 mph - N/A   Clear
3:35 AM 64.4 °F - 60.8 °F 88% 30.01 in 10.0 mi SSE 5.8 mph - N/A   Clear
3:55 AM 64.4 °F - 59.0 °F 83% 30.01 in 10.0 mi SSE 6.9 mph - N/A   Clear
4:15 AM 64.4 °F - 59.0 °F 83% 30.01 in 10.0 mi SSE 6.9 mph - N/A   Clear
4:35 AM 64.4 °F - 59.0 °F 83% 30.01 in 10.0 mi SSE 5.8 mph - N/A   Clear
4:55 AM 64.4 °F - 59.0 °F 83% 30.01 in 10.0 mi SSE 5.8 mph - N/A   Clear
5:15 AM 64.4 °F - 59.0 °F 83% 30.01 in 10.0 mi SSE 6.9 mph - N/A   Clear
5:35 AM 64.4 °F - 59.0 °F 83% 30.01 in 10.0 mi SSE 6.9 mph - N/A   Clear
5:55 AM 62.6 °F - 59.0 °F 88% 30.01 in 10.0 mi SSE 6.9 mph - N/A   Clear
6:15 AM 62.6 °F - 59.0 °F 88% 30.02 in 10.0 mi South 5.8 mph - N/A   Clear
6:35 AM 64.4 °F - 59.0 °F 83% 30.02 in 10.0 mi South 4.6 mph - N/A   Clear
6:55 AM 64.4 °F - 59.0 °F 83% 30.03 in 10.0 mi South 4.6 mph - N/A   Clear
7:15 AM 68.0 °F - 59.0 °F 73% 30.03 in 10.0 mi SSE 4.6 mph - N/A   Clear
7:35 AM 69.8 °F - 59.0 °F 68% 30.03 in 10.0 mi SE 6.9 mph - N/A   Clear
7:55 AM 71.6 °F - 59.0 °F 64% 30.03 in 10.0 mi SSE 3.5 mph - N/A   Clear
8:15 AM 73.4 °F - 59.0 °F 61% 30.04 in 10.0 mi Calm Calm - N/A   Clear
8:35 AM 73.4 °F - 60.8 °F 65% 30.04 in 10.0 mi SW 4.6 mph - N/A   Clear
8:55 AM 73.4 °F - 59.0 °F 61% 30.04 in 10.0 mi Calm Calm - N/A   Clear
9:15 AM 73.4 °F - 60.8 °F 65% 30.05 in 10.0 mi Calm Calm - N/A   Clear
9:35 AM 77.0 °F - 60.8 °F 57% 30.05 in 10.0 mi WSW 6.9 mph - N/A   Clear
9:55 AM 78.8 °F - 60.8 °F 54% 30.05 in 10.0 mi WNW 4.6 mph - N/A   Clear
10:15 AM 78.8 °F - 60.8 °F 54% 30.05 in 10.0 mi Calm Calm - N/A   Clear
10:35 AM 80.6 °F 81.1 °F 59.0 °F 48% 30.05 in 10.0 mi West 3.5 mph - N/A   Clear
10:55 AM 80.6 °F 81.5 °F 60.8 °F 51% 30.05 in 10.0 mi NW 5.8 mph - N/A   Clear
11:15 AM 82.4 °F 82.9 °F 60.8 °F 48% 30.05 in 10.0 mi WNW 6.9 mph - N/A   Clear
11:35 AM 82.4 °F 82.9 °F 60.8 °F 48% 30.05 in 10.0 mi WNW 8.1 mph - N/A   Clear
11:55 AM 86.0 °F 85.4 °F 59.0 °F 40% 30.05 in 10.0 mi West 6.9 mph - N/A   Clear
12:15 PM 86.0 °F 85.4 °F 59.0 °F 40% 30.05 in 10.0 mi West 3.5 mph - N/A   Clear
12:35 PM 86.0 °F 85.4 °F 59.0 °F 40% 30.04 in 10.0 mi WSW 4.6 mph - N/A   Clear
12:55 PM 87.8 °F 87.1 °F 59.0 °F 38% 30.03 in 10.0 mi SW 3.5 mph - N/A   Clear
1:15 PM 87.8 °F 87.1 °F 59.0 °F 38% 30.03 in 10.0 mi WNW 6.9 mph - N/A   Clear
1:35 PM 89.6 °F 88.9 °F 59.0 °F 36% 30.03 in 10.0 mi WNW 8.1 mph - N/A   Clear
1:55 PM 89.6 °F 88.9 °F 59.0 °F 36% 30.03 in 10.0 mi NW 5.8 mph - N/A   Clear
2:15 PM 91.4 °F 89.9 °F 57.2 °F 31% 30.03 in 10.0 mi WSW 4.6 mph - N/A   Clear
2:35 PM 91.4 °F 89.4 °F 55.4 °F 29% 30.02 in 10.0 mi NNW 5.8 mph - N/A   Clear
2:55 PM 93.2 °F 90.8 °F 53.6 °F 26% 30.01 in 10.0 mi WNW 4.6 mph - N/A   Clear
3:15 PM 95.0 °F 92.7 °F 53.6 °F 25% 30.01 in 10.0 mi West 5.8 mph - N/A   Clear
3:35 PM 95.0 °F - 50.0 °F 22% 30.01 in 10.0 mi NW 6.9 mph - N/A   Clear
3:55 PM 95.0 °F - 51.8 °F 23% 30.00 in 10.0 mi NNW 5.8 mph - N/A   Clear
4:15 PM 95.0 °F - 51.8 °F 23% 30.00 in 10.0 mi WNW 5.8 mph - N/A   Clear
4:35 PM 95.0 °F 93.0 °F 55.4 °F 26% 29.99 in 10.0 mi WNW 9.2 mph - N/A   Clear
4:55 PM 95.0 °F 93.0 °F 55.4 °F 26% 29.99 in 10.0 mi WNW 8.1 mph - N/A   Clear
5:15 PM 95.0 °F 93.0 °F 55.4 °F 26% 29.98 in 10.0 mi WNW 9.2 mph - N/A   Clear
5:35 PM 95.0 °F 93.0 °F 55.4 °F 26% 29.97 in 10.0 mi WNW 6.9 mph - N/A   Clear
5:55 PM 95.0 °F 93.0 °F 55.4 °F 26% 29.97 in 10.0 mi NW 6.9 mph - N/A   Clear
6:15 PM 95.0 °F 92.7 °F 53.6 °F 25% 29.96 in 10.0 mi NW 5.8 mph - N/A   Clear
6:35 PM 95.0 °F 92.7 °F 53.6 °F 25% 29.96 in 10.0 mi NW 5.8 mph - N/A   Clear
6:55 PM 95.0 °F - 51.8 °F 23% 29.96 in 10.0 mi NW 4.6 mph - N/A   Clear
7:15 PM 95.0 °F - 50.0 °F 22% 29.95 in 10.0 mi North 4.6 mph - N/A   Clear
7:35 PM 93.2 °F 91.3 °F 55.4 °F 28% 29.95 in 10.0 mi NNW 5.8 mph - N/A   Clear
7:55 PM 91.4 °F 89.9 °F 57.2 °F 31% 29.95 in 10.0 mi Calm Calm - N/A   Clear
8:15 PM 89.6 °F 88.9 °F 59.0 °F 36% 29.95 in 10.0 mi Calm Calm - N/A   Clear
8:35 PM 86.0 °F 85.4 °F 59.0 °F 40% 29.95 in 10.0 mi West 3.5 mph - N/A   Clear
8:55 PM 84.2 °F 84.4 °F 60.8 °F 45% 29.96 in 10.0 mi West 3.5 mph - N/A   Clear
9:15 PM 80.6 °F 82.3 °F 64.4 °F 58% 29.96 in 10.0 mi West 3.5 mph - N/A   Clear
9:35 PM 80.6 °F 82.7 °F 66.2 °F 61% 29.97 in 10.0 mi Calm Calm - N/A   Clear
9:55 PM 77.0 °F - 68.0 °F 74% 29.98 in 10.0 mi Calm Calm - N/A   Clear
10:15 PM 73.4 °F - 62.6 °F 69% 29.98 in 10.0 mi Calm Calm - N/A   Clear
10:35 PM 71.6 °F - 64.4 °F 78% 29.99 in 10.0 mi ENE 3.5 mph - N/A   Clear
10:55 PM 69.8 °F - 62.6 °F 78% 29.99 in 10.0 mi ENE 5.8 mph - N/A   Clear
11:15 PM 69.8 °F - 62.6 °F 78% 29.99 in 10.0 mi ENE 5.8 mph - N/A   Clear
11:35 PM 68.0 °F - 62.6 °F 83% 29.99 in 10.0 mi ENE 4.6 mph - N/A   Clear
11:55 PM 69.8 °F - 62.6 °F 78% 29.98 in 10.0 mi NE 3.5 mph - N/A   Clear